BEIDOU-2 IGSO-7

Last updated on Sat Sep 05 2026 00:03:05 GMT+0000 (Coordinated Universal Time)

1 43539U 18057A 26246.78412405 -.00000139 00000+0 00000+0 0 9998 2 43539 55.2130 162.3928 0108225 236.7593 338.4333 1.00279650 29914
UTC large
Height (km)
Speed (km/s)
/
Latitude / Longitude
Inclination (degrees)
Orbital Period (minutes)
Azimuth
Elevation
Range (km)
Doppler Factor

Next 0 passes for location: London (51.5072 / 0.1276)

No passes found over London.
BEIDOU-2 IGSO-7